Burns Flat, OK

1:09 AM CST on January 21, 2017 (GMT -0600)
Clinton-Sherman

Weather History for KCSM - December, 2011

Change the Weather History Date:

Saturday, December 24, 2011

  Actual Average Record
Temperature  
Mean Temperature 37 °F -  
Max Temperature 48 °F 47 °F 64 °F (2016)
Min Temperature 26 °F 26 °F 8 °F (2004)
Degree Days  
Heating Degree Days 28    
Moisture  
Dew Point 22 °F    
Average Humidity 63    
Maximum Humidity 82    
Minimum Humidity 29    
Precipitation  
Precipitation 0.00 in - - ()
Sea Level Pressure  
Sea Level Pressure 30.45 in    
Wind  
Wind Speed 7 mph (WNW)    
Max Wind Speed 12 mph    
Max Gust Speed -    
Visibility 10 miles    
Events      
Averages and records for this station are not official NWS values.
T = Trace of Precipitation, MM = Missing Value Source: NWS Daily Summary

Daily Weather History Graph

Daily Weather History Graph

Search for Another Location

Airport or City:

Trip Planner

Search our weather history database for the weather conditions in past years. The results will help you decide how hot, cold, wet, or windy it might be!

Date:

Astronomy

Dec. 24, 2011 Rise Set
Actual Time 7:43 AM CST 5:29 PM CST
Civil Twilight 7:14 AM CST 5:57 PM CST
Nautical Twilight 6:42 AM CST 6:29 PM CST
Astronomical Twilight 6:11 AM CST 7:00 PM CST
Moon 7:32 AM CST (12/24) 5:44 PM CST (12/24)
Length of Visible Light 10h 43m
Length of Day
9h 46m
New Moon, 0% of the Moon is Illuminated
Dec 24
New Moon
Dec 24
New
Jan 1
First Quarter
Jan 9
Full
Jan 16
Last Quarter

Hourly Weather History & Observations

Time (CST) Temp. Windchill Dew Point Humidity Pressure Visibility Wind Dir Wind Speed Gust Speed Precip Events Conditions
12:53 AM 27.0 °F 19.5 °F 19.9 °F 75% 30.44 in 10.0 mi WNW 6.9 mph - N/A   Clear
1:53 AM 27.0 °F 18.0 °F 19.0 °F 72% 30.44 in 10.0 mi WSW 9.2 mph - N/A   Clear
2:53 AM 26.1 °F 17.6 °F 19.0 °F 75% 30.46 in 10.0 mi SSW 8.1 mph - N/A   Clear
3:53 AM 26.1 °F 17.6 °F 19.9 °F 78% 30.45 in 10.0 mi West 8.1 mph - N/A   Clear
4:53 AM 27.0 °F 19.5 °F 21.0 °F 78% 30.44 in 10.0 mi West 6.9 mph - N/A   Clear
5:53 AM 26.1 °F 19.4 °F 19.9 °F 78% 30.46 in 10.0 mi WNW 5.8 mph - N/A   Clear
6:53 AM 27.0 °F 19.5 °F 19.0 °F 72% 30.46 in 10.0 mi NW 6.9 mph - N/A   Clear
7:53 AM 28.0 °F 20.8 °F 19.9 °F 72% 30.46 in 10.0 mi NW 6.9 mph - N/A   Clear
8:53 AM 30.0 °F 26.5 °F 21.0 °F 69% 30.50 in 10.0 mi WSW 3.5 mph - N/A   Clear
9:53 AM 33.1 °F 24.4 °F 24.1 °F 70% 30.51 in 10.0 mi SW 11.5 mph - N/A   Clear
10:53 AM 37.9 °F 32.1 °F 24.1 °F 57% 30.51 in 10.0 mi SW 8.1 mph - N/A   Clear
11:53 AM 42.1 °F 37.1 °F 21.9 °F 45% 30.48 in 10.0 mi West 8.1 mph - N/A   Clear
12:53 PM 46.0 °F 43.9 °F 21.0 °F 37% 30.43 in 10.0 mi WSW 4.6 mph - N/A   Clear
1:53 PM 46.9 °F - 16.0 °F 29% 30.40 in 10.0 mi West 4.6 mph - N/A   Clear
2:53 PM 48.0 °F - 18.0 °F 30% 30.39 in 10.0 mi WNW 5.8 mph - N/A   Clear
3:53 PM 48.0 °F - 21.0 °F 34% 30.38 in 10.0 mi NNW 3.5 mph - N/A   Clear
4:53 PM 45.0 °F 41.8 °F 25.0 °F 46% 30.40 in 10.0 mi NNE 5.8 mph - N/A   Scattered Clouds
6:53 PM 36.0 °F - 27.0 °F 70% 30.43 in 10.0 mi Calm Calm - N/A   Clear
7:53 PM 34.0 °F - 27.0 °F 75% 30.45 in 10.0 mi Calm Calm - N/A   Clear
8:53 PM 35.1 °F 32.2 °F 25.0 °F 67% 30.45 in 10.0 mi North 3.5 mph - N/A   Clear
9:53 PM 33.1 °F 27.7 °F 25.0 °F 72% 30.45 in 10.0 mi NNW 5.8 mph - N/A   Clear
10:53 PM 32.0 °F 24.8 °F 25.0 °F 75% 30.44 in 10.0 mi NNW 8.1 mph - N/A   Clear
11:53 PM 30.0 °F 22.4 °F 25.0 °F 82% 30.43 in 10.0 mi NNW 8.1 mph - N/A   Clear